[[{"header":{"parameterUnit":"m.s-1","parameterCategory":1,"la1":30.2991,"la2":30.254,"lo1":-89.0895,"lo2":-89.0444,"dy":0.0017,"dx":0.0017,"nx":28,"ny":28,"refTime":"2025-04-27T21:00:00:Z","depth":0,"parameterNumber":2,"parameterNumberName":"U-component_of_WINDS"},"data":[0,0,0,0,0,0,0,0,0,0,0,0,0,0,0,0,0,0,0,0,0,0,0,0,0,0,0,0,0,0,0,0,0,0,0,0,0,0,0,0,0,0,0,0,0,0,0,0,0,0,0,0,0,0,0,0,0,0,-0.5312,-0.5312,0,-0.529,-0.529,-0.529,-0.5284,-0.5285,-0.5285,-0.5285,-0.526,-0.5259,-0.5258,0,0,0,0,0,0,0,0,0,0,0,0,0,-0.5348,-0.5347,-0.5312,-0.5312,-0.5312,-0.529,-0.529,-0.529,-0.5284,-0.5285,-0.5285,-0.5285,-0.526,-0.5259,-0.5258,0,0,0,0,0,0,0,0,0,0,0,0,0,-0.533,-0.5347,-0.5312,-0.5307,-0.5306,-0.5291,-0.529,-0.529,-0.5284,-0.5285,-0.5285,-0.5285,-0.526,-0.5259,-0.5258,-0.5246,0,0,-0.5254,-0.5254,0,0,0,0,0,0,0,0,-0.5331,-0.5328,-0.5308,-0.5307,-0.5306,-0.529,-0.5293,-0.5275,-0.5284,-0.5292,-0.5285,-0.5285,-0.5269,-0.5268,-0.5263,-0.5245,-0.5243,-0.5254,-0.5253,-0.5253,-0.5252,0,0,0,0,0,0,0,-0.5332,-0.5329,-0.5304,-0.5307,-0.5307,-0.5304,-0.5302,-0.529,-0.528,-0.5292,-0.5291,-0.5289,-0.5269,-0.5264,-0.5262,-0.5243,-0.5254,-0.5253,-0.5252,-0.5252,-0.5214,-0.5214,0,0,0,0,0,0,-0.5334,-0.533,-0.5304,-0.5303,-0.5319,-0.5304,-0.5301,-0.5295,-0.528,-0.5278,-0.5289,-0.5289,-0.5266,-0.5264,-0.5261,-0.5246,-0.5253,-0.5252,-0.5251,-0.5214,-0.5214,-0.5214,0,0,0,0,0,0,-0.5335,-0.5332,-0.5305,-0.5317,-0.5313,-0.5303,-0.5296,-0.5295,-0.529,-0.5278,-0.5276,-0.5286,-0.5266,-0.5263,-0.525,-0.5245,-0.5251,-0.525,-0.5214,-0.5214,-0.5214,-0.5216,0,0,0,0,0,0,-0.5336,-0.5333,-0.5328,-0.5316,-0.5312,-0.5295,-0.5296,-0.5294,-0.5288,-0.5288,-0.5274,-0.5272,-0.5266,-0.5252,-0.5249,-0.5244,-0.5249,-0.5215,-0.5214,-0.5214,-0.5216,-0.5216,-0.5215,0,0,0,0,0,-0.5338,-0.5329,-0.5328,-0.5325,-0.5307,-0.5295,-0.5292,-0.5286,-0.5288,-0.5283,-0.5275,-0.5273,-0.5246,-0.525,-0.5247,-0.5241,-0.5215,-0.5214,-0.5214,-0.5216,-0.5216,-0.5215,0,0,0,0,0,0,-0.534,-0.5327,-0.5326,-0.5314,-0.5305,-0.5294,-0.5288,-0.5285,-0.5276,-0.5276,-0.5268,-0.5265,-0.5252,-0.5245,-0.525,-0.5229,-0.5231,-0.5229,-0.5234,-0.5233,-0.5233,-0.5234,-0.5248,0,0,0,0,0,-0.5339,-0.5331,-0.532,-0.531,-0.5306,-0.5298,-0.5292,-0.5288,-0.5279,-0.5275,-0.5266,-0.5256,-0.5246,-0.5239,-0.5229,-0.5215,-0.5212,-0.521,-0.5209,-0.5209,-0.5208,-0.52,-0.5199,-0.5211,-0.5212,-0.5212,0,0,-0.5337,-0.5329,-0.5324,-0.531,-0.5303,-0.5294,-0.5295,-0.5285,-0.5278,-0.5273,-0.526,-0.5254,-0.5242,-0.5229,-0.5223,-0.5223,-0.5204,-0.5208,-0.5208,-0.5207,-0.5199,-0.5198,-0.5197,-0.5211,-0.5211,-0.5211,0,0,-0.5328,-0.5322,-0.5313,-0.5306,-0.5296,-0.5291,-0.5289,-0.5277,-0.5273,-0.5261,-0.5257,-0.5248,-0.523,-0.5222,-0.5216,-0.5205,-0.5202,-0.5202,-0.5199,-0.5192,-0.5191,-0.519,-0.5186,-0.5184,-0.5201,-0.5201,-0.5201,0,-0.5327,-0.5314,-0.5308,-0.5299,-0.5293,-0.529,-0.528,-0.5274,-0.526,-0.5256,-0.5257,-0.5235,-0.5227,-0.5211,-0.5209,-0.5204,-0.5201,-0.5203,-0.5191,-0.519,-0.5189,-0.5185,-0.5184,-0.5201,-0.5201,-0.5201,-0.5201,0,-0.5312,-0.5303,-0.5297,-0.5285,-0.5279,-0.5269,-0.5262,-0.5256,-0.5253,-0.5247,-0.5234,-0.5225,-0.5213,-0.5209,-0.5205,-0.5193,-0.5194,-0.5193,-0.5194,-0.5188,-0.5184,-0.5183,-0.5201,-0.5201,-0.5201,-0.5201,0,0,-0.5304,-0.529,-0.5288,-0.5282,-0.5271,-0.5264,-0.5254,-0.5243,-0.5238,-0.5229,-0.522,-0.5206,-0.5206,-0.5198,-0.5194,-0.5187,-0.5179,-0.5188,-0.5187,-0.5186,-0.5165,-0.5165,-0.5164,-0.5178,-0.5177,-0.5177,-0.5166,0,-0.5293,-0.5277,-0.5273,-0.5259,-0.525,-0.5247,-0.5238,-0.523,-0.5225,-0.5216,-0.521,-0.52,-0.52,-0.5196,-0.5189,-0.5182,-0.5175,-0.5183,-0.5169,-0.5168,-0.5172,-0.5162,-0.5162,-0.5152,-0.5165,-0.5164,-0.5164,0,-0.5279,-0.5271,-0.5257,-0.5247,-0.5243,-0.5236,-0.5226,-0.5218,-0.5208,-0.5205,-0.5197,-0.5193,-0.5183,-0.5185,-0.517,-0.5175,-0.517,-0.5165,-0.5165,-0.5163,-0.5166,-0.5159,-0.5149,-0.5147,-0.5162,-0.5162,-0.5162,0,-0.5274,-0.526,-0.5249,-0.5245,-0.5233,-0.5228,-0.5223,-0.5214,-0.5208,-0.5199,-0.5194,-0.5184,-0.5178,-0.5169,-0.5163,-0.5165,-0.5148,-0.515,-0.5144,-0.5144,-0.514,-0.5141,-0.5128,-0.5137,-0.5137,-0.5137,-0.5137,0,-0.5263,-0.5255,-0.5247,-0.524,-0.523,-0.5225,-0.5215,-0.5209,-0.5201,-0.5193,-0.5189,-0.5182,-0.5174,-0.5164,-0.5159,-0.5147,-0.5145,-0.5141,-0.514,-0.5141,-0.5142,-0.5137,-0.5137,-0.5137,-0.5137,-0.5137,-0.5137,0,-0.5256,-0.5251,-0.5239,-0.5229,-0.5227,-0.5219,-0.5211,-0.5204,-0.5199,-0.5188,-0.5186,-0.5177,-0.5166,-0.5159,-0.5145,-0.5142,-0.5129,-0.5128,-0.5132,-0.5131,-0.5126,-0.5126,-0.511,-0.5107,-0.5118,-0.5118,-0.5118,0,-0.5249,-0.5242,-0.5232,-0.5227,-0.5222,-0.5214,-0.5208,-0.5202,-0.5196,-0.5185,-0.5179,-0.5169,-0.516,-0.5143,-0.5135,-0.5124,-0.5122,-0.5117,-0.5121,-0.5122,-0.5122,-0.5122,-0.5121,-0.5117,-0.5116,-0.5116,-0.5116,0,-0.5237,-0.5235,-0.5227,-0.5218,-0.5212,-0.5204,-0.5196,-0.5192,-0.5185,-0.5178,-0.5168,-0.5161,-0.5147,-0.5137,-0.5125,-0.5119,-0.5116,-0.5116,-0.5114,-0.5115,-0.5118,-0.5116,-0.513,-0.5116,-0.5116,-0.5116,-0.5116,-0.5116,-0.523,-0.5224,-0.5216,-0.5207,-0.5201,-0.5194,-0.5187,-0.5182,-0.5173,-0.5162,-0.5159,-0.5148,-0.5139,-0.5124,-0.5118,-0.5109,-0.5109,-0.5106,-0.5105,-0.5105,-0.5105,-0.512,-0.5107,-0.5107,-0.5107,-0.5107,-0.5107,0,-0.5218,-0.5213,-0.5205,-0.5195,-0.5188,-0.5187,-0.5179,-0.5173,-0.5163,-0.5156,-0.5147,-0.5135,-0.5125,-0.5117,-0.5106,-0.51,-0.5099,-0.5097,-0.5097,-0.5096,-0.5105,-0.5108,-0.5099,-0.5099,-0.5099,-0.5099,-0.5099,-0.5099,-0.5211,-0.52,-0.5197,-0.5184,-0.5179,-0.5169,-0.5164,-0.5157,-0.5151,-0.5138,-0.513,-0.5125,-0.5117,-0.5106,-0.5096,-0.5094,-0.509,-0.5089,-0.5086,-0.5095,-0.5095,-0.5096,-0.5099,-0.5088,-0.5088,-0.5078,-0.5078,-0.5078]},{"header":{"parameterUnit":"m.s-1","parameterCategory":1,"la1":30.2991,"la2":30.254,"lo1":-89.0895,"lo2":-89.0444,"dy":0.0017,"dx":0.0017,"nx":28,"ny":28,"refTime":"2025-04-27T21:00:00:Z","depth":0,"parameterNumber":3,"parameterNumberName":"V-component_of_WINDS"},"data":[0,0,0,0,0,0,0,0,0,0,0,0,0,0,0,0,0,0,0,0,0,0,0,0,0,0,0,0,0,0,0,0,0,0,0,0,0,0,0,0,0,0,0,0,0,0,0,0,0,0,0,0,0,0,0,0,0,0,0.5803,0.5802,0,0.571,0.5709,0.5708,0.5675,0.5675,0.5675,0.5676,0.5575,0.5572,0.5569,0,0,0,0,0,0,0,0,0,0,0,0,0,0.5947,0.5944,0.5803,0.5802,0.5801,0.5711,0.5709,0.5708,0.5675,0.5675,0.5675,0.5676,0.5576,0.5572,0.5569,0,0,0,0,0,0,0,0,0,0,0,0,0,0.5872,0.5943,0.5803,0.5773,0.577,0.5711,0.5709,0.5708,0.5674,0.5675,0.5675,0.5676,0.5577,0.5573,0.5568,0.553,0,0,0.5554,0.5552,0,0,0,0,0,0,0,0,0.5876,0.5867,0.5779,0.5775,0.5771,0.5705,0.5723,0.5648,0.5674,0.571,0.5676,0.5676,0.5617,0.5609,0.5591,0.5526,0.5521,0.5554,0.5551,0.5549,0.5548,0,0,0,0,0,0,0,0.5881,0.5871,0.5766,0.5778,0.5773,0.5763,0.5753,0.5708,0.5662,0.5707,0.5705,0.5695,0.5615,0.5595,0.5588,0.552,0.5554,0.555,0.5547,0.5546,0.5419,0.5418,0,0,0,0,0,0,0.5892,0.5875,0.5769,0.5764,0.5826,0.576,0.5749,0.5725,0.5662,0.5653,0.5694,0.5693,0.5603,0.5593,0.5584,0.5536,0.5549,0.5545,0.5543,0.542,0.5419,0.5418,0,0,0,0,0,0,0.5896,0.5883,0.5773,0.5819,0.5804,0.5757,0.5731,0.5723,0.5703,0.5653,0.5644,0.5683,0.5603,0.5591,0.5544,0.5532,0.5543,0.5539,0.542,0.5419,0.5418,0.5439,0,0,0,0,0,0,0.59,0.5885,0.5871,0.5819,0.5802,0.5736,0.573,0.5721,0.5696,0.5694,0.5639,0.5631,0.5602,0.5551,0.554,0.5526,0.5536,0.5421,0.542,0.5419,0.5439,0.5439,0.5439,0,0,0,0,0,0.5905,0.5879,0.587,0.5858,0.5784,0.5736,0.5725,0.5695,0.5696,0.5681,0.5648,0.5632,0.5536,0.5547,0.5534,0.5518,0.5422,0.542,0.5419,0.5439,0.5439,0.5439,0,0,0,0,0,0,0.5929,0.5872,0.5861,0.5818,0.5782,0.573,0.571,0.5695,0.5657,0.5656,0.5618,0.5606,0.5563,0.5536,0.555,0.5478,0.5478,0.5473,0.5498,0.5497,0.5497,0.5503,0.5532,0,0,0,0,0,0.593,0.5897,0.5848,0.5814,0.5797,0.5757,0.5735,0.5715,0.5675,0.5659,0.5623,0.5584,0.5544,0.5519,0.548,0.5436,0.5423,0.5418,0.5418,0.5418,0.5414,0.5389,0.5386,0.5413,0.5413,0.5413,0,0,0.5929,0.5894,0.5875,0.5818,0.5788,0.5754,0.5744,0.5708,0.5682,0.5653,0.5608,0.558,0.5533,0.5488,0.5466,0.5464,0.5404,0.5416,0.5417,0.5413,0.5387,0.5384,0.5382,0.5412,0.5412,0.5412,0,0,0.5912,0.5882,0.5851,0.5822,0.5777,0.5751,0.5744,0.5694,0.5675,0.5629,0.5607,0.5575,0.5508,0.5476,0.5451,0.5423,0.5407,0.5411,0.5409,0.5384,0.5382,0.538,0.5369,0.5366,0.5408,0.5408,0.5408,0,0.5917,0.5866,0.5837,0.5802,0.5777,0.5752,0.572,0.5692,0.5636,0.5619,0.5618,0.5534,0.5501,0.5448,0.5441,0.5422,0.5411,0.5417,0.5385,0.5383,0.538,0.537,0.5366,0.5409,0.5409,0.5408,0.5408,0,0.5874,0.5839,0.5819,0.5769,0.5741,0.5708,0.5672,0.5648,0.563,0.5604,0.5557,0.5517,0.547,0.5456,0.5437,0.54,0.54,0.5393,0.5391,0.5379,0.5368,0.5364,0.541,0.5409,0.5409,0.5409,0,0,0.5868,0.5803,0.5796,0.5772,0.5722,0.5693,0.5659,0.5614,0.5594,0.5557,0.5526,0.5471,0.5464,0.5435,0.5413,0.5392,0.5372,0.5387,0.5385,0.5385,0.5327,0.5333,0.5329,0.5361,0.5361,0.536,0.5331,0,0.5843,0.5782,0.5755,0.5705,0.5672,0.5648,0.5618,0.5583,0.5557,0.5524,0.5495,0.5457,0.5451,0.5434,0.5412,0.5379,0.536,0.5381,0.5331,0.5329,0.5343,0.5323,0.5329,0.5304,0.5327,0.5326,0.5326,0,0.5806,0.5771,0.5719,0.5673,0.5658,0.5631,0.5589,0.5558,0.5518,0.55,0.547,0.5449,0.541,0.5412,0.5358,0.5373,0.5351,0.5332,0.533,0.5323,0.5326,0.5316,0.5295,0.5291,0.5319,0.5319,0.532,0,0.5806,0.5746,0.5707,0.5688,0.5633,0.5615,0.5591,0.5551,0.5527,0.5489,0.5473,0.543,0.5407,0.5374,0.5342,0.5346,0.529,0.5289,0.5274,0.5274,0.5262,0.5263,0.5237,0.5249,0.5249,0.5249,0.5249,0,0.5781,0.575,0.5706,0.5682,0.5646,0.5615,0.558,0.5554,0.5519,0.5488,0.5465,0.5436,0.5396,0.5362,0.5336,0.5295,0.5284,0.5268,0.5262,0.527,0.5272,0.5254,0.5255,0.5248,0.5248,0.5249,0.5249,0,0.5775,0.5744,0.57,0.5653,0.5641,0.5616,0.5575,0.555,0.5524,0.5486,0.5475,0.5433,0.5392,0.5357,0.5302,0.5285,0.5242,0.5235,0.5257,0.5253,0.5239,0.5241,0.52,0.5193,0.5211,0.5211,0.5211,0,0.5761,0.5736,0.5688,0.5667,0.5644,0.561,0.5585,0.5553,0.5528,0.5481,0.5462,0.5419,0.5384,0.5319,0.5283,0.524,0.5231,0.522,0.5225,0.5234,0.523,0.5232,0.5229,0.5219,0.5219,0.5219,0.5219,0,0.5738,0.5725,0.5692,0.5653,0.5625,0.5592,0.5559,0.5543,0.5505,0.5477,0.5436,0.5409,0.5354,0.5312,0.5267,0.524,0.5223,0.5219,0.5213,0.522,0.5234,0.5226,0.5255,0.5219,0.5219,0.5219,0.5219,0.5219,0.5727,0.5705,0.5667,0.5631,0.5603,0.5573,0.5547,0.5519,0.5485,0.5439,0.5422,0.538,0.534,0.5277,0.5251,0.5216,0.5214,0.5205,0.5203,0.5201,0.5202,0.5241,0.5208,0.5208,0.5208,0.5208,0.5208,0,0.5703,0.5679,0.5646,0.5601,0.5572,0.5561,0.5524,0.55,0.5464,0.5429,0.5395,0.5348,0.5307,0.5269,0.5226,0.5205,0.5197,0.5195,0.5196,0.519,0.5207,0.5217,0.5203,0.5203,0.5203,0.5203,0.5203,0.5203,0.5688,0.5649,0.5632,0.5579,0.5554,0.5514,0.5493,0.5465,0.5437,0.5386,0.5353,0.5329,0.5292,0.5247,0.5209,0.5198,0.5183,0.5184,0.5171,0.5188,0.5189,0.5189,0.5198,0.5181,0.5181,0.5157,0.5156,0.5156]}]]